Regional Weather Roundup
Issued by NWS Cleveland, OH

Home | Current Version | Previous Version | Graphics & Text | Print | Product List | Glossary On
Versions: 1 2 3 4 5 6 7 8 9 10 11 12 13 14 15 16 17 18 19 20 21 22 23 24 25 26 27 28 29 30 31 32 33 34 35 36 37 38 39 40 41 42 43 44 45 46 47 48 49 50
505
ASUS41 KCLE 290212
RWRCLE
OHIO REGIONAL WEATHER ROUNDUP
NATIONAL WEATHER SERVICE WILMINGTON, OH
1000 PM EDT FRI APR 28 2017

NOTE: "FAIR" INDICATES FEW OR NO CLOUDS BELOW 12,000 FEET WITH NO
SIGNIFICANT WEATHER AND/OR OBSTRUCTIONS TO VISIBILITY.

OHZ001>008-015>018-024>027-034-035-043-044-290300-
   NORTHWEST OHIO

CITY           SKY/WX    TMP DP  RH WIND       PRES   REMARKS
DEFIANCE       LGT RAIN  52  50  93 CALM      29.97R
FINDLAY        LGT RAIN  55  50  83 SE5       29.94R
TOLEDO EXPRESS FAIR      53  51  93 CALM      29.95R
TOLEDO EXEC    FAIR      55  51  86 E3        29.95S
LIMA           LGT RAIN  55  54  96 SE14G23   29.93R
$$

OHZ009>014-019>023-028>033-038-089-290300-
   NORTHEAST OHIO

CITY           SKY/WX    TMP DP  RH WIND       PRES   REMARKS
CLE-HOPKINS    LGT RAIN  58  51  78 SE5       30.01R
CLE-LAKEFRONT  LGT RAIN  59  52  77 S7        29.98R
CUY CO. ARPT   LGT RAIN  57  52  82 SE8       29.99
LORAIN-ELYRIA  RAIN      55  50  83 SE9       29.97F
ASHTABULA      CLOUDY    57  51  80 S8        30.01F
AKRON-CANTON   LGT RAIN  58  50  75 SE10      30.01F
WOOSTER        RAIN      56  52  86 SE9       30.01R
MANSFIELD      TSTM      55  52  89 SE12      30.01R FOG
YOUNGSTOWN     LGT RAIN  58  48  69 SE7       30.01F
$$

OHZ042-051>053-060>062-070>072-077>081-290300-
  SOUTHWEST OHIO

CITY           SKY/WX    TMP DP  RH WIND       PRES   REMARKS
CINC-COVINGTON TSTM      62  60  93 N46G53    29.80F
CINC-LUNKEN    TSTM      66  62  87 N16       29.88R
HAMILTON       TSTM      59  59 100 NE5       29.94R FOG
DAYTON         TSTM      57  56  96 E8G20     29.93S
WRIGHT-PAT AFB TSTM      59  59 100 CALM      29.95F
DAYTON GENERAL HVY RAIN  58  56  93 E8        29.94R FOG
WILMINGTON     TSTM      58  58 100 NE15G22   29.91R FOG
$$

OHZ036-037-039>041-045>050-054>059-063>069-073>076-082>088-290300-
  CENTRAL AND SOUTHEAST OHIO

CITY           SKY/WX    TMP DP  RH WIND       PRES   REMARKS
COLUMBUS       TSTM      58  55  90 E14G43    29.94F FOG
OSU AIRPORT    TSTM      58  55  90 NE13G39   29.97R FOG
BOLTON FIELD   CLOUDY    57  55  90 NE14G33   29.95R
RICKENBACK AFB TSTM      58  56  91 E13       29.92F
NEWARK         LGT RAIN  59  53  80 E13       29.94S
MARION         TSTM      56  52  86 E8        29.99S FOG
LANCASTER      TSTM      61  54  77 E10       29.95R
ZANESVILLE     TSTM      62  50  64 NE10      29.97R
NEW PHILLY     LGT RAIN  61  51  70 E7        30.02R
$$




USA.gov is the U.S. government's official web portal to all federal, state and local government web resources and services.